Regional Weather Roundup
Issued by NWS Goodland, KS

Home | Current Version | Previous Version | Graphics & Text | Print | Product List | Glossary On
Versions: 1 2 3 4 5 6 7 8 9 10 11 12 13 14 15 16 17 18 19 20 21 22 23 24 25 26 27 28 29 30 31 32 33 34 35 36 37 38 39 40 41 42 43 44 45 46 47 48 49 50
000
ASUS43 KGLD 270559
RWRGLD

GOODLAND FORECAST AREA HOURLY WEATHER ROUNDUP
NATIONAL WEATHER SERVICE GOODLAND KS
1200 AM MDT WED JUL 27 2016

...OFFICIAL OBSERVATIONS...

CITY           SKY/WX    TMP DP  RH WIND       PRES   REMARKS
GOODLAND KS    PTCLDY    69  54  58 S10       30.05F
HILL CITY KS   CLOUDY    78  66  66 SE8       30.02R
IMPERIAL NEB   CLOUDY    70  58  65 NW6       30.07R
MCCOOK NEB     CLOUDY    77  65  66 SE6       30.03F
AKRON CO       CLEAR     65  54  67 S13       30.12R
BURLINGTON CO  CLOUDY    65  58  78 SW7       30.11S
LIMON CO       NOT AVBL
$$

...UNOFFICIAL OBSERVATIONS...

CITY           SKY/WX    TMP DP  RH WIND       PRES   REMARKS
COLBY KS       CLEAR     75  55  50 SE3       30.05F
LENORA KS        N/A     77  32  19 MISG        N/A
NORTON KS      CLEAR     73  61  64 E6        30.03S
YUMA CO          N/A     66  56  71 SW8         N/A
$$




USA.gov is the U.S. government's official web portal to all federal, state and local government web resources and services.